Time,TemperatureF,DewpointF,PressureIn,WindDirection,WindDirectionDegrees,WindSpeedMPH,WindSpeedGustMPH,Humidity,HourlyPrecipIn,Conditions,Clouds,dailyrainin,SolarRadiationWatts/m^2,SoftwareType,DateUTC
2013-03-17 00:03:00,50.0,48.0,30.15,SE,127,1.0,4.0,94,0.00,,,0.01,0.000000,,2013-03-17 04:03:00,
2013-03-17 00:13:00,50.0,48.0,30.15,SE,127,1.0,4.0,94,0.00,,,0.01,0.000000,,2013-03-17 04:13:00,
2013-03-17 00:43:00,48.0,47.0,30.17,ENE,77,1.0,4.0,96,0.00,,,0.01,0.000000,,2013-03-17 04:43:00,
2013-03-17 00:53:00,48.0,47.0,30.17,ENE,77,1.0,4.0,96,0.00,,,0.01,0.000000,,2013-03-17 04:53:00,
2013-03-17 01:03:00,48.0,47.0,30.17,ENE,77,1.0,4.0,96,0.00,,,0.01,0.000000,,2013-03-17 05:03:00,
2013-03-17 01:12:00,48.0,47.0,30.17,ENE,77,1.0,4.0,96,0.00,,,0.01,0.000000,,2013-03-17 05:12:00,
2013-03-17 01:42:00,46.0,45.0,30.18,ESE,113,1.0,3.0,97,0.00,,,0.01,0.000000,,2013-03-17 05:42:00,
2013-03-17 01:52:00,46.0,45.0,30.18,ESE,113,1.0,3.0,97,0.00,,,0.01,0.000000,,2013-03-17 05:52:00,
2013-03-17 02:02:00,46.0,45.0,30.18,ESE,113,1.0,3.0,97,0.00,,,0.01,0.000000,,2013-03-17 06:02:00,
2013-03-17 02:12:00,46.0,45.0,30.18,ESE,113,1.0,3.0,97,0.00,,,0.01,0.000000,,2013-03-17 06:12:00,
2013-03-17 02:42:00,43.0,42.0,30.18,East,81,1.0,3.0,97,0.00,,,0.01,0.000000,,2013-03-17 06:42:00,
2013-03-17 02:53:00,43.0,42.0,30.18,East,81,1.0,3.0,97,0.00,,,0.01,0.000000,,2013-03-17 06:53:00,
2013-03-17 03:02:00,43.0,42.0,30.18,East,81,1.0,3.0,97,0.00,,,0.01,0.000000,,2013-03-17 07:02:00,
2013-03-17 03:12:00,43.0,42.0,30.18,East,81,1.0,3.0,97,0.00,,,0.01,0.000000,,2013-03-17 07:12:00,
2013-03-17 03:42:00,45.0,44.0,30.19,ENE,61,1.0,4.0,98,0.00,,,0.01,0.000000,,2013-03-17 07:42:00,
2013-03-17 03:52:00,45.0,44.0,30.19,ENE,61,1.0,4.0,98,0.00,,,0.01,0.000000,,2013-03-17 07:52:00,
2013-03-17 04:03:00,45.0,44.0,30.19,ENE,61,1.0,4.0,98,0.00,,,0.01,0.000000,,2013-03-17 08:03:00,
2013-03-17 04:13:00,45.0,44.0,30.19,ENE,61,1.0,4.0,98,0.00,,,0.01,0.000000,,2013-03-17 08:13:00,
2013-03-17 04:42:00,47.0,46.0,30.20,NNW,347,1.0,4.0,98,0.00,,,0.01,0.000000,,2013-03-17 08:42:00,
2013-03-17 04:52:00,47.0,46.0,30.20,NNW,347,1.0,4.0,98,0.00,,,0.01,0.000000,,2013-03-17 08:52:00,
2013-03-17 05:03:00,47.0,46.0,30.20,NNW,347,1.0,4.0,98,0.00,,,0.01,0.000000,,2013-03-17 09:03:00,
2013-03-17 05:13:00,47.0,46.0,30.20,NNW,347,1.0,4.0,98,0.00,,,0.01,0.000000,,2013-03-17 09:13:00,
2013-03-17 05:43:00,47.0,46.0,30.19,ESE,110,1.0,3.0,98,0.00,,,0.01,0.000000,,2013-03-17 09:43:00,
2013-03-17 05:53:00,47.0,46.0,30.19,ESE,110,1.0,3.0,98,0.00,,,0.01,0.000000,,2013-03-17 09:53:00,
2013-03-17 06:03:00,47.0,46.0,30.19,ESE,110,1.0,3.0,98,0.00,,,0.01,0.000000,,2013-03-17 10:03:00,
2013-03-17 06:13:00,47.0,46.0,30.19,ESE,110,1.0,3.0,98,0.00,,,0.01,0.000000,,2013-03-17 10:13:00,
2013-03-17 06:42:00,49.0,48.0,30.20,SE,135,1.0,2.0,97,0.00,,,0.01,0.000000,,2013-03-17 10:42:00,
2013-03-17 06:53:00,49.0,48.0,30.20,SE,135,1.0,2.0,97,0.00,,,0.01,0.000000,,2013-03-17 10:53:00,
2013-03-17 07:03:00,49.0,48.0,30.20,SE,135,1.0,2.0,97,0.00,,,0.01,0.000000,,2013-03-17 11:03:00,
2013-03-17 07:12:00,49.0,48.0,30.20,SE,135,1.0,2.0,97,0.00,,,0.01,0.000000,,2013-03-17 11:12:00,
2013-03-17 07:43:00,50.0,49.0,30.23,SE,125,1.0,3.0,96,0.00,,,0.01,0.000000,,2013-03-17 11:43:00,
2013-03-17 07:52:00,50.0,49.0,30.23,SE,125,1.0,3.0,96,0.00,,,0.01,0.000000,,2013-03-17 11:52:00,
2013-03-17 08:02:00,50.0,49.0,30.23,SE,125,1.0,3.0,96,0.00,,,0.01,0.000000,,2013-03-17 12:02:00,
2013-03-17 08:12:00,50.0,49.0,30.23,SE,125,1.0,3.0,96,0.00,,,0.01,0.000000,,2013-03-17 12:12:00,
2013-03-17 08:43:00,51.0,50.0,30.26,WNW,298,2.0,4.0,97,0.00,,,0.01,2.000000,,2013-03-17 12:43:00,
2013-03-17 08:52:00,51.0,50.0,30.26,WNW,298,2.0,4.0,97,0.00,,,0.01,2.000000,,2013-03-17 12:52:00,
2013-03-17 09:02:00,51.0,50.0,30.26,WNW,298,2.0,4.0,97,0.00,,,0.01,2.000000,,2013-03-17 13:02:00,
2013-03-17 09:13:00,51.0,50.0,30.26,WNW,298,2.0,4.0,97,0.00,,,0.01,2.000000,,2013-03-17 13:13:00,
2013-03-17 09:43:00,50.0,49.0,30.28,SSW,204,1.0,4.0,97,0.00,,,0.01,5.000000,,2013-03-17 13:43:00,
2013-03-17 09:53:00,50.0,49.0,30.28,SSW,204,1.0,4.0,97,0.00,,,0.01,5.000000,,2013-03-17 13:53:00,
2013-03-17 10:02:00,50.0,49.0,30.28,SSW,204,1.0,4.0,97,0.00,,,0.01,5.000000,,2013-03-17 14:02:00,
2013-03-17 10:12:00,50.0,49.0,30.28,SSW,204,1.0,4.0,97,0.00,,,0.01,5.000000,,2013-03-17 14:12:00,
2013-03-17 10:43:00,56.0,52.0,30.28,WSW,250,1.0,4.0,87,0.00,,,0.01,60.000000,,2013-03-17 14:43:00,
2013-03-17 10:53:00,56.0,52.0,30.28,WSW,250,1.0,4.0,87,0.00,,,0.01,60.000000,,2013-03-17 14:53:00,
2013-03-17 11:02:00,56.0,52.0,30.28,WSW,250,1.0,4.0,87,0.00,,,0.01,60.000000,,2013-03-17 15:02:00,
2013-03-17 11:12:00,56.0,52.0,30.28,WSW,250,1.0,4.0,87,0.00,,,0.01,60.000000,,2013-03-17 15:12:00,
2013-03-17 11:43:00,57.0,50.0,30.30,NNE,30,3.0,8.0,76,0.00,,,0.01,247.000000,,2013-03-17 15:43:00,
2013-03-17 11:53:00,57.0,50.0,30.30,NNE,30,3.0,8.0,76,0.00,,,0.01,247.000000,,2013-03-17 15:53:00,
2013-03-17 12:03:00,57.0,50.0,30.30,NNE,30,3.0,8.0,76,0.00,,,0.01,247.000000,,2013-03-17 16:03:00,
2013-03-17 12:13:00,57.0,50.0,30.30,NNE,30,3.0,8.0,76,0.00,,,0.01,247.000000,,2013-03-17 16:13:00,
2013-03-17 12:43:00,53.0,47.0,30.31,NW,305,3.0,10.0,81,0.01,,,0.02,184.000000,,2013-03-17 16:43:00,
2013-03-17 12:53:00,53.0,47.0,30.31,NW,305,3.0,10.0,81,0.01,,,0.02,184.000000,,2013-03-17 16:53:00,
2013-03-17 13:03:00,53.0,47.0,30.31,NW,305,3.0,10.0,81,0.01,,,0.02,184.000000,,2013-03-17 17:03:00,
2013-03-17 13:12:00,53.0,47.0,30.31,NW,305,3.0,10.0,81,0.01,,,0.02,184.000000,,2013-03-17 17:12:00,
2013-03-17 13:42:00,53.0,46.0,30.32,North,354,4.0,11.0,76,0.00,,,0.02,113.000000,,2013-03-17 17:42:00,
2013-03-17 13:53:00,53.0,46.0,30.32,North,354,4.0,11.0,76,0.00,,,0.02,113.000000,,2013-03-17 17:53:00,
2013-03-17 14:02:00,53.0,46.0,30.32,North,354,4.0,11.0,76,0.00,,,0.02,113.000000,,2013-03-17 18:02:00,
2013-03-17 14:12:00,53.0,46.0,30.32,North,354,4.0,11.0,76,0.00,,,0.02,113.000000,,2013-03-17 18:12:00,
2013-03-17 14:42:00,49.0,42.0,30.32,North,8,3.0,14.0,77,0.00,,,0.02,105.000000,,2013-03-17 18:42:00,
2013-03-17 14:52:00,49.0,42.0,30.32,North,8,3.0,14.0,77,0.00,,,0.02,105.000000,,2013-03-17 18:52:00,
2013-03-17 15:02:00,49.0,42.0,30.32,North,8,3.0,14.0,77,0.00,,,0.02,105.000000,,2013-03-17 19:02:00,
2013-03-17 15:12:00,49.0,42.0,30.32,North,8,3.0,14.0,77,0.00,,,0.02,105.000000,,2013-03-17 19:12:00,
2013-03-17 15:42:00,48.0,42.0,30.31,NW,325,3.0,11.0,79,0.00,,,0.02,86.000000,,2013-03-17 19:42:00,
2013-03-17 15:53:00,48.0,42.0,30.31,NW,325,3.0,11.0,79,0.00,,,0.02,86.000000,,2013-03-17 19:53:00,
2013-03-17 16:02:00,48.0,42.0,30.31,NW,325,3.0,11.0,79,0.00,,,0.02,86.000000,,2013-03-17 20:02:00,
2013-03-17 16:12:00,48.0,42.0,30.31,NW,325,3.0,11.0,79,0.00,,,0.02,86.000000,,2013-03-17 20:12:00,
2013-03-17 16:43:00,47.0,41.0,30.31,WNW,287,3.0,12.0,79,0.00,,,0.02,87.000000,,2013-03-17 20:43:00,
2013-03-17 16:52:00,47.0,41.0,30.31,WNW,287,3.0,12.0,79,0.00,,,0.02,87.000000,,2013-03-17 20:52:00,
2013-03-17 17:03:00,47.0,41.0,30.31,WNW,287,3.0,12.0,79,0.00,,,0.02,87.000000,,2013-03-17 21:03:00,
2013-03-17 17:12:00,47.0,41.0,30.31,WNW,287,3.0,12.0,79,0.00,,,0.02,87.000000,,2013-03-17 21:12:00,
2013-03-17 17:43:00,44.0,38.0,30.32,NW,311,3.0,12.0,80,0.00,,,0.02,71.000000,,2013-03-17 21:43:00,
2013-03-17 17:53:00,44.0,38.0,30.32,NW,311,3.0,12.0,80,0.00,,,0.02,71.000000,,2013-03-17 21:53:00,
2013-03-17 18:03:00,44.0,38.0,30.32,NW,311,3.0,12.0,80,0.00,,,0.02,71.000000,,2013-03-17 22:03:00,
2013-03-17 18:13:00,44.0,38.0,30.32,NW,311,3.0,12.0,80,0.00,,,0.02,71.000000,,2013-03-17 22:13:00,
2013-03-17 18:42:00,43.0,38.0,30.33,North,4,2.0,12.0,81,0.00,,,0.02,42.000000,,2013-03-17 22:42:00,
2013-03-17 18:53:00,43.0,38.0,30.33,North,4,2.0,12.0,81,0.00,,,0.02,42.000000,,2013-03-17 22:53:00,
2013-03-17 19:03:00,43.0,38.0,30.33,North,4,2.0,12.0,81,0.00,,,0.02,42.000000,,2013-03-17 23:03:00,
2013-03-17 19:12:00,43.0,38.0,30.33,North,4,2.0,12.0,81,0.00,,,0.02,42.000000,,2013-03-17 23:12:00,
2013-03-17 19:43:00,42.0,37.0,30.35,NNE,22,3.0,8.0,82,0.00,,,0.01,13.000000,,2013-03-17 23:43:00,
2013-03-17 19:53:00,42.0,37.0,30.35,NNE,22,3.0,8.0,82,0.00,,,0.01,13.000000,,2013-03-17 23:53:00,
2013-03-17 20:03:00,42.0,37.0,30.35,NNE,22,3.0,8.0,82,0.00,,,0.01,13.000000,,2013-03-18 00:03:00,
2013-03-17 20:42:00,40.0,36.0,30.39,NW,304,3.0,12.0,86,0.00,,,0.01,0.000000,,2013-03-18 00:42:00,
2013-03-17 20:53:00,40.0,36.0,30.39,NW,304,3.0,12.0,86,0.00,,,0.01,0.000000,,2013-03-18 00:53:00,
2013-03-17 21:02:00,40.0,36.0,30.39,NW,304,3.0,12.0,86,0.00,,,0.01,0.000000,,2013-03-18 01:02:00,
2013-03-17 21:12:00,40.0,36.0,30.39,NW,304,3.0,12.0,86,0.00,,,0.01,0.000000,,2013-03-18 01:12:00,
2013-03-17 21:42:00,39.0,36.0,30.43,West,274,4.0,13.0,88,0.00,,,0.01,0.000000,,2013-03-18 01:42:00,
2013-03-17 21:52:00,39.0,36.0,30.43,West,274,4.0,13.0,88,0.00,,,0.01,0.000000,,2013-03-18 01:52:00,
2013-03-17 22:02:00,39.0,36.0,30.43,West,274,4.0,13.0,88,0.00,,,0.01,0.000000,,2013-03-18 02:02:00,
2013-03-17 22:12:00,39.0,36.0,30.43,West,274,4.0,13.0,88,0.00,,,0.01,0.000000,,2013-03-18 02:12:00,
2013-03-17 22:42:00,38.0,34.0,30.45,NE,52,4.0,12.0,87,0.00,,,0.01,0.000000,,2013-03-18 02:42:00,
2013-03-17 22:52:00,38.0,34.0,30.45,NE,52,4.0,12.0,87,0.00,,,0.01,0.000000,,2013-03-18 02:52:00,
2013-03-17 23:03:00,38.0,34.0,30.45,NE,52,4.0,12.0,87,0.00,,,0.01,0.000000,,2013-03-18 03:03:00,
2013-03-17 23:12:00,38.0,34.0,30.45,NE,52,4.0,12.0,87,0.00,,,0.01,0.000000,,2013-03-18 03:12:00,
2013-03-17 23:42:00,37.0,34.0,30.46,North,11,4.0,13.0,89,0.00,,,0.01,0.000000,,2013-03-18 03:42:00,
2013-03-17 23:53:00,37.0,34.0,30.46,North,11,4.0,13.0,89,0.00,,,0.01,0.000000,,2013-03-18 03:53:00,